DateTimeUTC,F1_A11,F1_S11,BsB_S11,BsG_S11,BsR_S11,BbsB_S11,BbsG_S11,BbsR_S11,BaB_A11,BaG_A11,BaR_A11,Tu_S11,T_S11,Uu_S11,U_S11,P_S11,T1_A11
2021-04-27T13:00:00Z,00040200,20000000,,,,,,,-000.09,0000.13,0000.08,20.1,26.7,07.2,04.8,0684.3,31.3
2021-04-27T13:01:00Z,00040200,20000000,,,,,,,0000.24,0000.12,0000.31,20.1,26.8,07.2,04.8,0684.3,31.3
2021-04-27T13:02:00Z,00040200,20000000,,,,,,,-000.09,-000.12,0000.02,20.1,26.8,07.2,04.8,0684.3,31.3
2021-04-27T13:03:00Z,00040200,60000000,,,,,,,0000.30,0000.14,0000.21,20.1,26.8,07.2,04.8,0684.3,31.3
2021-04-27T13:04:00Z,00040200,40000000,0002.40,0001.28,0000.62,0000.33,0000.09,0000.02,0000.64,0000.84,0000.42,20.2,26.6,07.1,04.9,0685.1,31.3
2021-04-27T13:05:00Z,00040200,00000000,0001.99,0001.23,0000.36,0001.06,0000.20,0000.11,0000.09,0000.48,0000.25,20.3,26.6,07.1,04.8,0685.2,31.3
2021-04-27T13:06:00Z,00040200,00000000,0001.87,0001.25,0000.60,0000.48,0000.19,-000.02,0001.25,0000.53,0000.81,20.3,26.6,07.2,04.9,0685.2,31.2
2021-04-27T13:07:00Z,00040200,00000000,0002.12,0001.42,0000.79,0000.37,0000.27,0000.35,0000.59,0000.25,0000.05,20.3,26.6,07.2,04.9,0685.2,31.3
2021-04-27T13:08:00Z,00040200,00000000,0002.34,0001.13,0000.64,0000.41,0000.45,0000.22,0000.53,0001.05,0000.68,20.3,26.6,07.1,04.9,0685.2,31.2
2021-04-27T13:09:00Z,00040200,00000000,0002.14,0001.07,0000.54,-000.19,0000.14,-000.10,0000.22,-000.10,0000.08,20.3,26.6,07.2,04.9,0685.2,31.3
2021-04-27T13:10:00Z,00040200,00000000,0002.02,0001.27,0000.67,0000.72,0000.25,-000.07,0000.97,0001.22,0001.03,20.3,26.6,07.4,05.0,0685.2,31.2
2021-04-27T13:11:00Z,00040200,00000000,0001.81,0001.31,0000.56,0000.42,0000.32,0000.05,0000.33,0000.80,0000.16,20.3,26.6,07.3,05.0,0685.2,31.2
2021-04-27T13:12:00Z,00040200,00000000,0001.77,0000.81,0000.79,0000.74,0000.17,-000.18,0000.88,-000.06,0000.62,20.3,26.6,07.4,05.1,0685.2,31.3
2021-04-27T13:13:00Z,00040200,00000000,0001.75,0000.95,0000.63,0000.57,0000.09,0000.19,0001.22,0001.01,0000.49,20.3,26.6,07.5,05.2,0685.2,31.2
2021-04-27T13:14:00Z,00040200,00000000,0001.56,0001.31,0000.38,0000.43,0000.16,0000.02,0000.82,0000.52,0000.63,20.3,26.6,07.6,05.2,0685.2,31.3
2021-04-27T13:15:00Z,00040200,00000000,0001.70,0001.29,0000.43,0000.12,0000.12,0000.06,0000.81,0001.03,0000.86,20.3,26.6,07.7,05.3,0685.2,31.3
2021-04-27T13:16:00Z,00040200,00000000,0001.73,0000.98,0000.70,-000.04,-000.02,0000.10,0000.91,0000.94,0000.53,20.3,26.6,07.9,05.4,0685.3,31.3
2021-04-27T13:17:00Z,00040200,00000000,0001.85,0001.19,0000.42,0000.03,0000.20,0000.00,0000.77,0000.46,0000.49,20.3,26.6,08.0,05.5,0685.3,31.3
2021-04-27T13:18:00Z,00040200,00000000,0001.47,0001.05,0000.67,0000.64,0000.02,0000.20,0000.38,0000.55,0000.48,20.3,26.6,08.0,05.5,0685.3,31.3
2021-04-27T13:19:00Z,00040200,00000000,0001.30,0000.91,0000.69,0000.72,-000.02,0000.05,0000.30,0000.48,0000.29,20.3,26.6,08.0,05.5,0685.3,31.3
2021-04-27T13:20:00Z,00040200,00000000,0001.60,0001.07,0000.64,-000.17,0000.25,0000.25,0000.36,0000.20,0000.01,20.3,26.6,07.8,05.3,0685.3,31.3
2021-04-27T13:21:00Z,00040200,00000000,0001.76,0001.19,0000.46,0000.22,0000.05,0000.11,0000.55,0000.32,0000.17,20.3,26.6,07.7,05.3,0685.3,31.3
2021-04-27T13:22:00Z,00040200,00000000,0001.78,0001.19,0000.47,-000.03,0000.10,0000.18,0000.44,0000.74,0000.51,20.4,26.6,07.7,05.3,0685.3,31.3
2021-04-27T13:23:00Z,00040200,00000000,0002.19,0001.04,0000.65,0000.21,0000.23,0000.45,0000.87,0000.90,0001.14,20.4,26.6,07.8,05.4,0685.3,31.3
2021-04-27T13:24:00Z,00040200,00000000,0001.99,0001.12,0000.84,0000.36,0000.08,0000.42,0000.78,0000.62,0000.03,20.4,26.6,07.9,05.4,0685.3,31.3
2021-04-27T13:25:00Z,00040200,00000000,0001.95,0001.23,0000.45,0000.44,-000.02,0000.04,0000.72,0000.91,0000.71,20.4,26.6,07.9,05.4,0685.3,31.3
2021-04-27T13:26:00Z,00040200,00000000,0001.36,0001.24,0000.70,0000.02,0000.13,0000.15,0000.90,0000.05,0000.35,20.4,26.6,07.9,05.4,0685.3,31.3
2021-04-27T13:27:00Z,00040200,00000000,0001.66,0001.11,0000.50,0000.39,0000.11,0000.07,0000.09,0000.70,0000.19,20.4,26.6,07.8,05.3,0685.3,31.2
2021-04-27T13:28:00Z,00040200,00000000,0001.68,0001.20,0000.45,0001.04,0000.27,0000.04,0000.28,0000.01,0000.26,20.4,26.6,07.7,05.3,0685.3,31.3
2021-04-27T13:29:00Z,00040200,00000000,0002.12,0001.32,0000.52,0000.67,0000.13,-000.06,0000.63,0000.84,0000.52,20.4,26.6,07.7,05.3,0685.3,31.3
2021-04-27T13:30:00Z,00040200,00000000,0002.19,0001.06,0000.54,0000.92,0000.12,0000.04,0000.80,0000.48,0000.47,20.4,26.6,07.7,05.3,0685.3,31.3
2021-04-27T13:31:00Z,00040200,00000000,0001.91,0001.04,0000.18,0000.58,0000.41,-000.05,0000.36,0000.64,0000.31,20.4,26.6,07.7,05.3,0685.3,31.3
2021-04-27T13:32:00Z,00040200,00000000,0001.44,0000.98,0000.33,0000.99,-000.02,-000.02,0000.92,0000.43,0000.47,20.4,26.6,07.8,05.3,0685.3,31.3
2021-04-27T13:33:00Z,00040200,00000000,0001.78,0001.34,0000.82,0000.30,0000.06,0000.11,-000.01,0000.50,0000.32,20.4,26.6,07.8,05.3,0685.3,31.3
2021-04-27T13:34:00Z,00040200,00000000,0002.67,0001.02,0000.85,0000.12,0000.08,0000.19,0000.82,0000.26,0000.54,20.4,26.6,07.7,05.3,0685.3,31.3
2021-04-27T13:35:00Z,00040200,00000000,0001.47,0001.52,0000.50,-000.04,0000.18,0000.17,0000.61,0000.36,0000.10,20.4,26.6,07.6,05.2,0685.3,31.3
2021-04-27T13:36:00Z,00040200,00000000,0002.09,0001.19,0000.45,0000.26,0000.31,0000.04,0000.16,0000.61,0000.70,20.4,26.6,07.6,05.2,0685.3,31.3
2021-04-27T13:37:00Z,00040200,00000000,0002.26,0001.24,0000.65,0000.13,0000.21,0000.04,0000.16,0000.02,-000.25,20.4,26.6,07.5,05.1,0685.3,31.3
2021-04-27T13:38:00Z,00040200,00000000,0001.20,0001.19,0000.40,0000.75,0000.04,0000.07,0000.50,0000.55,0000.15,20.4,26.6,07.3,05.0,0685.3,31.3
2021-04-27T13:39:00Z,00040200,00000000,0001.29,0001.42,0000.36,0000.38,0000.22,0000.07,0000.63,0000.44,0000.55,20.4,26.6,07.2,05.0,0685.3,31.2
2021-04-27T13:40:00Z,00040200,00000000,0002.22,0001.26,0000.56,0000.23,0000.01,0000.10,0000.33,0000.52,0000.40,20.4,26.6,07.2,04.9,0685.3,31.3
2021-04-27T13:41:00Z,00040200,00000000,0002.09,0001.26,0000.77,-000.04,0000.01,0000.06,0000.53,0000.30,0000.33,20.4,26.6,07.1,04.9,0685.3,31.3
2021-04-27T13:42:00Z,00040200,00000000,0001.76,0001.21,0000.52,0000.34,0000.06,0000.18,0000.84,0000.29,0000.44,20.4,26.6,07.1,04.9,0685.3,31.3
2021-04-27T13:43:00Z,00040200,00000000,0001.59,0001.20,0000.74,0000.51,0000.22,0000.03,0000.52,0000.56,0000.23,20.4,26.6,07.2,04.9,0685.3,31.2
2021-04-27T13:44:00Z,00040200,00000000,0001.40,0001.15,0000.51,0000.19,0000.17,0000.15,0000.56,0000.76,0000.57,20.4,26.6,07.1,04.9,0685.2,31.2
2021-04-27T13:45:00Z,00040200,00000000,0001.62,0001.25,0000.53,0000.50,0000.01,-000.17,0000.52,0000.55,0000.67,20.4,26.6,07.1,04.9,0685.2,31.3
2021-04-27T13:46:00Z,00040200,00000000,0001.59,0001.26,0000.55,0000.25,0000.18,0000.01,0000.70,0000.85,0000.40,20.4,26.7,07.2,05.0,0685.2,31.3
2021-04-27T13:47:00Z,00040200,00000000,0002.11,0001.11,0000.43,0000.59,0000.37,0000.30,0001.26,0001.39,0000.87,20.4,26.7,07.4,05.1,0685.2,31.3
2021-04-27T13:48:00Z,00040200,00000000,0001.80,0001.13,0000.49,0000.90,-000.08,0000.07,0000.69,0000.02,0000.24,20.4,26.7,07.4,05.1,0685.2,31.3
2021-04-27T13:49:00Z,00040200,00000000,0001.12,0000.89,0000.84,0000.16,0000.16,-000.09,0000.54,0000.22,0000.34,20.4,26.7,07.4,05.1,0685.2,31.3
2021-04-27T13:50:00Z,00040200,00000000,0001.73,0001.28,0000.44,0000.74,0000.24,-000.18,0000.22,0000.41,0000.44,20.4,26.7,07.3,05.0,0685.2,31.3
2021-04-27T13:51:00Z,00040200,00000000,0002.46,0001.21,0000.23,0000.52,0000.17,0000.08,0000.83,0001.04,0000.64,20.4,26.7,07.4,05.1,0685.3,31.3
2021-04-27T13:52:00Z,00040200,00000000,0001.78,0001.00,0000.59,0000.35,0000.23,0000.16,0000.68,0000.73,0000.54,20.5,26.7,07.5,05.1,0685.3,31.3
2021-04-27T13:53:00Z,00040200,00000000,0001.02,0001.38,0000.71,0000.24,0000.06,0000.17,0001.37,0001.03,0001.12,20.5,26.7,07.7,05.3,0685.3,31.3
2021-04-27T13:54:00Z,00040200,00000000,0002.00,0001.25,0000.43,-000.18,0000.21,0000.12,0000.99,0000.95,0000.70,20.5,26.7,08.1,05.6,0685.2,31.3
2021-04-27T13:55:00Z,00040200,00000000,0001.64,0001.40,0000.62,0000.45,0000.04,0000.19,-000.22,-000.03,-000.08,20.5,26.7,08.0,05.5,0685.3,31.3
2021-04-27T13:56:00Z,00040200,00000000,0002.22,0001.16,0000.61,0000.54,0000.01,-000.01,0000.34,0000.02,0000.46,20.5,26.7,07.7,05.3,0685.3,31.3
2021-04-27T13:57:00Z,00040200,40000000,,,,,,,0000.12,0000.27,-000.49,20.5,26.7,07.0,04.8,0685.1,31.3
2021-04-27T13:58:00Z,00040200,60000000,,,,,,,0000.03,0000.07,-000.08,20.4,26.8,07.4,05.0,0684.3,31.3
2021-04-27T13:59:00Z,00040200,20000000,,,,,,,-000.29,-000.39,-000.31,20.4,26.9,07.4,05.0,0684.2,31.3
